Location: Titusville
(28.6120°N, 80.8080°W)
Time: 06:32:16
(UTC-04:00)

N. Korean satellite - Visible Passes

Search period start: 21 October 2017 00:00
Search period end: 31 October 2017 00:00
Orbit: 459 x 517 km, 97.2° (Epoch: 20 October)

Date Brightness Start Highest point End Pass type
(mag) Time Alt. Az. Time Alt. Az. Time Alt. Az.
21 Oct 7.0 19:45:25 10° S 19:48:54 61° W 19:52:22 10° NNW visible
22 Oct 6.6 19:22:10 10° SSE 19:25:36 53° ENE 19:29:00 10° N visible
23 Oct 10.0 20:34:25 10° WSW 20:35:49 12° W 20:37:12 10° WNW visible
24 Oct 8.9 20:09:25 10° SSW 20:12:23 25° W 20:15:20 10° NW visible
25 Oct 7.0 19:45:33 10° S 19:49:01 60° W 19:52:27 10° NNW visible
26 Oct 6.5 19:22:17 10° SSE 19:25:41 54° ENE 19:29:04 10° N visible
27 Oct 10.1 20:34:38 10° WSW 20:35:54 12° W 20:37:09 10° WNW visible
28 Oct 8.9 20:09:32 10° SSW 20:12:27 25° W 20:15:21 10° NW visible
29 Oct 7.1 19:45:38 10° S 19:49:03 59° W 19:52:28 10° NNW visible
30 Oct 6.5 19:22:20 10° SSE 19:25:43 54° ENE 19:29:05 10° N visible
